• Join FlightAware (Why Join?)
  • Login
  • US Flag 
12:34PM EDT


 

Airport Tracker/Info


-or-


 

Live Flight TrackerFlight Track Log ✈ FIV521 ✈ 20-Apr-2013 ✈ KMCO - KSUA

Flight Track Log - Related Links

Times and Time Zones

All times are in EDT time to prevent confusion due to time zone crossing. See the FIV521 flight status page for this flight to view local times or setup timezone preferences in your user account.

Time Position Orientation Groundspeed Altitude Reporting Facility
EDT Latitude Longitude Course Direction KTS MPH feet Rate Location/Type
03:10PM 28.4333 -81.3333 134° Southeast 170 196 1,000  Level Orlando TRACON
03:12PM 28.4833 -81.2667 50° Northeast 255 293 5,100 3,600 Climbing Orlando TRACON
03:13PM 28.5167 -81.1667 69° East 302 348 9,300 3,180 Climbing Orlando TRACON
03:14PM 28.4500 -81.1167 147° Southeast 303 349 11,900 960 Climbing Orlando TRACON
03:15PM 28.3197 -81.0142 145° Southeast 379 436 11,900  Level Miami Center
03:16PM 28.1060 -81.0239 134° Southeast  Level Estimated
03:16PM 28.2464 -80.9550 145° Southeast 364 419 12,000  Level Miami Center
03:17PM 28.1669 -80.8861 143° Southeast 358 412 12,000  Level Miami Center
03:18PM 28.0853 -80.8197 144° Southeast 358 412 12,000  Level Miami Center
03:19PM 28.0058 -80.7536 144° Southeast 358 412 12,000 -240 Level Miami Center
03:20PM 27.9181 -80.6778 143° Southeast 358 412 11,600 -780 Descending Miami Center
03:21PM 27.8361 -80.6139 145° Southeast 358 412 10,500 -840 Descending Miami Center
03:22PM 27.7564 -80.5478 144° Southeast 353 406 10,000 -300 Descending Miami Center
03:23PM 27.6850 -80.4892 144° Southeast 353 406 10,000  Level Miami Center
03:24PM 27.6133 -80.4261 142° Southeast 342 394 10,000  Level Miami Center
03:25PM 27.5378 -80.3653 144° Southeast 314 361 10,000 -540 Level Miami Center
03:26PM 27.4703 -80.3094 144° Southeast 308 354 9,000 -1,320 Descending Miami Center
03:27PM 27.4025 -80.2558 145° Southeast 303 349 7,400 -1,560 Descending Miami Center
03:28PM 27.3450 -80.2097 145° Southeast 295 339 5,900 -1,500 Descending Miami Center
03:29PM 27.2836 -80.1589 144° Southeast 283 326 4,400 -1,200 Descending Miami Center
03:30PM 27.2392 -80.0900 126° Southeast 254 292 3,500 -1,200 Descending Miami Center
03:31PM 27.2094 -80.0261 118° Southeast 239 275 2,000 -780 Descending Miami Center
03:32PM 27.1575 -80.0058 161° South 190 219 2,000 -240 Level Miami Center
03:33PM 27.1233 -80.0400 222° Southwest 171 197 1,600 -240 Descending Miami Center
03:34PM 27.0933 -80.0811 231° Southwest 171 197 1,600  Level Miami Center
03:35PM 27.1506 -80.1342 320° Northwest 128 147 1,600 -60 Level Miami Center
03:36PM 27.1394 -80.1689 250° West 128 147 1,500 -120 Descending Miami Center
03:38PM 27.1667 -80.2167 275° West  Level FlightAware Approximate
03:45PM 27.1817 -80.2213 275° West  Level Estimated
03:46PM 27.1817 -80.2213 275° West  Level Estimated